User: anonymous   Login
Location: Ar Ranvel
(48.3000°N, 4.8833°W)
Time: 16:11:39
(UTC+00:00)
Language:

BREEZE-M DEB (TANK) - Orbit

View from above orbital plane
View from above orbital plane
View from above satellite
View from above satellite

Ground track
Ground track

The orbit data is extracted from the following two-line orbital elements,

1 37871U 11064E   21269.46949291  .00003419  00000-0  81344-3 0  9992
2 37871  52.6265  41.2978 5794888 169.3387 212.3144  4.34039481155588
Epoch (UTC): 26 September 2021 11:16:04
Eccentricity: 0.5794888
inclination: 52.6265°
perigee height: 297 km
apogee height: 18696 km
right ascension of ascending node: 41.2978°
argument of perigee: 169.3387°
revolutions per day: 4.34039481
mean anomaly at epoch: 212.3144°
orbit number at epoch: 15558

The dashed part of the orbit path shows where the satellite is in the earth's shadow,  

DLR